User: anonymous   Login
Location: Albany
(35.0000°S, 118.0000°E)
Time: 14:11:56
(UTC-04:00)
Language:

Cosmos 2227 Rocket - Orbit

View from above orbital plane
View from above orbital plane
View from above satellite
View from above satellite

Ground track
Ground track

The orbit data is extracted from the following two-line orbital elements,

1 22285U 92093B   14302.80599580 -.00000100  00000-0 -26965-4 0  4402
2 22285 071.0237 068.9439 0003319 189.3963 170.7098 14.14934762126546
Epoch (UTC): 29 October 2014 19:20:38
Eccentricity: 0.0003319
inclination: 71.0237°
perigee height: 840 km
apogee height: 845 km
right ascension of ascending node: 68.9439°
argument of perigee: 189.3963°
revolutions per day: 14.14934762
mean anomaly at epoch: 170.7098°
orbit number at epoch: 12654

The dashed part of the orbit path shows where the satellite is in the earth's shadow,  

DLR